Regional Weather Roundup
Issued by NWS

Home | Current Version | Previous Version | Graphics & Text | Print | Product List | Glossary On
Versions: 1 2 3 4 5 6 7 8 9 10 11 12 13 14 15 16 17 18 19 20 21 22 23 24 25 26 27 28 29 30 31 32 33 34 35 36 37 38 39 40 41 42 43 44 45 46 47 48 49 50
538
ASUS44 KMEG 270600
RWRTN
TENNESSEE HOURLY STATE WEATHER ROUNDUP
NATIONAL WEATHER SERVICE MEMPHIS TN
100 AM CDT SAT AUG 27 2016

TNZ002-004-019-021-049-052-054-088>092-270700-
WEST TENNESSEE

CITY           SKY/WX    TMP DP  RH WIND       PRES   REMARKS
MEMPHIS INTL   CLOUDY    75  71  87 E3        30.04F
NWS MEMPHIS      N/A     72 N/A N/A MISG        N/A
JACKSON        CLOUDY    72  72 100 E5        30.05F
DYERSBURG      CLOUDY    73  70  88 MISG      30.05F
UNION CITY     CLEAR     72  72 100 CALM      30.05S
PARIS          CLEAR     70  70 100 E6        30.07F
$$

TNZ008-025-027-028-033-062-065-066-270700-
NORTH MIDDLE TENNESSEE

CITY           SKY/WX    TMP DP  RH WIND       PRES   REMARKS
NASHVILLE      CLOUDY    76  70  82 N5        30.09F
CLARKSVILLE    LGT RAIN  71  69  93 N6        30.09F
COOKEVILLE     CLEAR     75  73  94 CALM      30.11S
CROSSVILLE     CLOUDY    72  70  93 CALM      30.17F
$$

TNZ061-075-076-078-094-096-097-270700-
SOUTH MIDDLE TENNESSEE

CITY           SKY/WX    TMP DP  RH WIND       PRES   REMARKS
TULLAHOMA      CLEAR     73  70  88 CALM      30.12F
WINCHESTER     CLEAR     73  72  94 CALM      30.11F
COLUMBIA       PTCLDY   N/A N/A N/A CALM      30.07F
SHELBYVILLE    CLEAR     73  73 100 CALM      30.11F
$$

TNZ017-018-042-046-047-270700-
NORTHEAST TENNESSEE

CITY           SKY/WX    TMP DP  RH WIND       PRES   REMARKS
TRI CITIES     PTCLDY    72  69  90 CALM      30.16F
$$

TNZ012-013-036-069-073-074-270700-
CENTRAL EAST TENNESSEE

CITY           SKY/WX    TMP DP  RH WIND       PRES   REMARKS
KNOXVILLE      CLOUDY    78  70  76 W5        30.11S
OAK RIDGE      CLOUDY    76  73  91 CALM      30.13S
GATLINBURG     CLEAR     72  68  88 CALM      30.11S
$$

TNZ083-085-099-270700-
SOUTHEAST TENNESSEE

CITY           SKY/WX    TMP DP  RH WIND       PRES   REMARKS
CHATTANOOGA    PTCLDY    77  74  90 E3        30.10F
$$

SKY/WX REPORTED AS FAIR MEANS FEW OR NO CLOUDS BELOW
12 THOUSAND FEET.





USA.gov is the U.S. government's official web portal to all federal, state and local government web resources and services.